Date String (YYYY-MM-DD hh:mm:ss) UTC,Instrument flags,Ambient pressure (hPa),Sample flow (lpm),Bypass flow (lpm),Sample temperature (°C),Ambient temperature (°C),ASC tube jacket temperature (°C),LED temperature (°C),Box temperature (°C),Sample RH (%),Span deviation,Mass concentration (μg/m³),Mass concentration (μg/m³),Mass concentration (μg/m³)
DateTimeUTC,F1_M11,P_M11,Q1_M11,Q2_M11,T1_M11,T2_M11,T3_M11,T4_M11,T5_M11,U1_M11,ZSPAN_M11,X0_M11,X2_M11,X1_M11
2022-11-12 08:00:00,,0827.4,4.99,0.00,22.3,21.6,00.0,31.1,24.2,09.7,0000.5,0016.10,0007.87,0006.91
2022-11-12 08:01:00,,0827.4,5.01,0.00,22.4,22.3,00.0,31.1,24.4,09.6,0000.3,0016.47,0007.88,0006.91
2022-11-12 08:02:00,,0827.4,4.98,0.00,22.4,22.0,00.0,31.1,24.4,09.6,0001.5,0016.78,0007.91,0006.93
2022-11-12 08:03:00,,0827.4,5.00,0.00,22.4,21.7,00.0,31.2,24.3,09.6,0000.6,0016.46,0007.94,0006.93
2022-11-12 08:04:00,,0827.4,5.01,0.00,22.4,21.4,00.0,31.2,24.2,09.6,0000.3,0016.56,0007.92,0006.91
2022-11-12 08:05:00,,0827.4,5.00,0.00,22.3,21.2,00.0,31.2,24.1,09.6,-000.1,0016.57,0007.93,0006.92
2022-11-12 08:06:00,,0827.3,5.00,0.00,22.3,20.9,00.0,31.2,24.1,09.6,-000.1,0016.71,0007.95,0006.92
2022-11-12 08:07:00,,0827.3,5.01,0.00,22.3,20.8,00.0,31.2,24.0,09.6,-000.3,0016.69,0007.90,0006.89
2022-11-12 08:08:00,,0827.3,5.00,0.00,22.2,20.7,00.0,31.2,24.0,09.6,-000.1,0017.24,0007.86,0006.88
2022-11-12 08:09:00,,0827.2,5.00,0.00,22.2,20.6,00.0,31.2,23.9,09.7,-000.5,0017.26,0007.86,0006.87
2022-11-12 08:10:00,,0827.3,4.99,0.00,22.2,20.6,00.0,31.1,23.9,09.7,-000.2,0017.34,0007.86,0006.85
2022-11-12 08:11:00,,0827.3,4.99,0.00,22.2,20.5,00.0,31.1,23.9,09.7,0000.6,0016.61,0007.86,0006.84
2022-11-12 08:12:00,,0827.3,5.01,0.00,22.2,20.8,00.0,31.1,24.0,09.7,0000.3,0016.88,0007.87,0006.84
2022-11-12 08:13:00,,0827.3,5.01,0.00,22.2,21.8,00.0,31.0,24.2,09.7,-000.1,0016.88,0007.87,0006.81
2022-11-12 08:14:00,,0827.3,4.98,0.00,22.3,22.3,00.0,31.1,24.4,09.6,-000.1,0016.03,0007.79,0006.78
2022-11-12 08:15:00,,0827.3,5.00,0.00,22.4,22.0,00.0,31.1,24.3,09.6,-000.7,0016.05,0007.78,0006.78
2022-11-12 08:16:00,,0827.3,5.00,0.00,22.4,21.6,00.0,31.1,24.3,09.6,-001.3,0017.09,0007.81,0006.77
2022-11-12 08:17:00,,0827.3,5.01,0.00,22.3,21.4,00.0,31.1,24.2,09.6,-001.3,0017.85,0007.76,0006.75
2022-11-12 08:18:00,,0827.3,4.99,0.00,22.3,21.2,00.0,31.1,24.2,09.7,-000.8,0017.85,0007.74,0006.75
2022-11-12 08:19:00,,0827.2,5.00,0.00,22.3,21.0,00.0,31.2,24.1,09.7,-000.9,0017.47,0007.74,0006.74
2022-11-12 08:20:00,,0827.3,5.00,0.00,22.3,20.8,00.0,31.1,24.0,09.7,-000.9,0018.41,0007.76,0006.74
2022-11-12 08:21:00,,0827.3,4.99,0.00,22.2,20.7,00.0,31.1,24.0,09.7,-001.1,0018.10,0007.78,0006.75
2022-11-12 08:22:00,,0827.2,4.99,0.00,22.2,20.6,00.0,31.1,24.0,09.7,-001.0,0018.04,0007.78,0006.77
2022-11-12 08:23:00,,0827.2,5.01,0.00,22.2,20.6,00.0,31.1,24.0,09.7,-000.3,0018.24,0007.76,0006.78
2022-11-12 08:24:00,,0827.2,5.00,0.00,22.2,20.7,00.0,31.1,24.0,09.7,-000.6,0018.45,0007.73,0006.80
2022-11-12 08:25:00,,0827.3,4.99,0.00,22.2,21.6,00.0,31.0,24.2,09.6,-000.2,0018.53,0007.76,0006.83
2022-11-12 08:26:00,,0827.3,4.99,0.00,22.4,22.4,00.0,31.1,24.4,09.6,0000.0,0018.52,0007.81,0006.84
2022-11-12 08:27:00,,0827.3,5.02,0.00,22.4,22.2,00.0,31.1,24.4,09.6,0001.0,0017.58,0007.80,0006.86
2022-11-12 08:28:00,,0827.2,5.00,0.00,22.4,21.8,00.0,31.1,24.3,09.6,0001.4,0017.89,0007.77,0006.88
2022-11-12 08:29:00,,0827.2,4.99,0.00,22.4,21.5,00.0,31.1,24.3,09.6,0002.1,0017.87,0007.81,0006.91
2022-11-12 08:30:00,,0827.2,5.00,0.00,22.4,21.2,00.0,31.2,24.2,09.7,0001.9,0018.44,0007.85,0006.93
2022-11-12 08:31:00,,0827.2,5.01,0.00,22.3,21.0,00.0,31.1,24.1,09.7,0002.9,0017.72,0007.92,0006.95
2022-11-12 08:32:00,,0827.2,4.98,0.00,22.3,20.8,00.0,31.1,24.1,09.7,0002.8,0017.22,0007.93,0006.96
2022-11-12 08:33:00,,0827.3,5.00,0.00,22.3,20.7,00.0,31.1,24.0,09.7,0003.3,0017.24,0007.91,0006.96
2022-11-12 08:34:00,,0827.3,4.99,0.00,22.2,20.7,00.0,31.1,24.0,09.7,0002.9,0016.87,0007.93,0006.95
2022-11-12 08:35:00,,0827.3,5.02,0.00,22.2,20.6,00.0,31.1,24.0,09.7,0003.3,0016.41,0008.02,0006.95
2022-11-12 08:36:00,,0827.4,5.00,0.00,22.2,20.6,00.0,31.1,24.0,09.7,0002.8,0016.50,0008.03,0006.96
2022-11-12 08:37:00,,0827.4,5.00,0.00,22.2,21.3,00.0,31.0,24.1,09.7,0002.2,0016.13,0008.04,0006.98
2022-11-12 08:38:00,,0827.4,4.99,0.00,22.3,22.3,00.0,31.1,24.4,09.7,0001.3,0015.89,0008.00,0006.99
2022-11-12 08:39:00,,0827.3,5.00,0.00,22.4,22.3,00.0,31.1,24.4,09.7,0000.3,0014.90,0008.04,0006.99
2022-11-12 08:40:00,,0827.4,5.00,0.00,22.4,21.9,00.0,31.1,24.4,09.7,-000.4,0014.69,0008.05,0006.99
2022-11-12 08:41:00,,0827.3,5.00,0.00,22.4,21.6,00.0,31.1,24.3,09.6,-000.1,0014.08,0008.06,0007.00
2022-11-12 08:42:00,,0827.3,5.00,0.00,22.4,21.3,00.0,31.2,24.2,09.6,-000.8,0013.65,0007.99,0007.01
2022-11-12 08:43:00,,0827.3,5.01,0.00,22.4,21.1,00.0,31.2,24.2,09.6,-000.7,0013.91,0007.95,0007.02
2022-11-12 08:44:00,,0827.2,5.01,0.00,22.3,20.9,00.0,31.2,24.1,09.6,-000.7,0013.76,0007.96,0007.02
2022-11-12 08:45:00,,0827.3,4.99,0.00,22.3,20.8,00.0,31.2,24.1,09.6,-000.8,0013.50,0007.99,0007.03
2022-11-12 08:46:00,,0827.2,4.99,0.00,22.3,20.7,00.0,31.2,24.1,09.7,-000.8,0013.43,0007.95,0007.03
2022-11-12 08:47:00,,0827.2,5.02,0.00,22.2,20.6,00.0,31.1,24.0,09.7,-001.0,0013.90,0007.92,0007.03
2022-11-12 08:48:00,,0827.2,4.99,0.00,22.2,20.6,00.0,31.1,24.0,09.7,-000.2,0014.27,0007.92,0007.03
2022-11-12 08:49:00,,0827.3,4.99,0.00,22.2,20.6,00.0,31.1,24.0,09.7,-000.3,0015.14,0007.99,0007.04
2022-11-12 08:50:00,,0827.3,4.99,0.00,22.3,21.5,00.0,31.1,24.2,09.7,0000.3,0015.28,0008.01,0007.04
2022-11-12 08:51:00,,0827.3,5.00,0.00,22.4,22.3,00.0,31.1,24.4,09.7,0000.3,0015.59,0007.99,0007.04
2022-11-12 08:52:00,,0827.3,5.01,0.00,22.4,22.1,00.0,31.1,24.4,09.6,-000.4,0015.80,0007.99,0007.04
2022-11-12 08:53:00,,0827.3,5.01,0.00,22.4,21.7,00.0,31.1,24.3,09.6,-000.9,0015.82,0007.99,0007.04
2022-11-12 08:54:00,,0827.2,5.00,0.00,22.4,21.5,00.0,31.2,24.3,09.6,-001.3,0015.57,0008.03,0007.06
2022-11-12 08:55:00,,0827.2,5.00,0.00,22.4,21.3,00.0,31.2,24.2,09.6,-001.6,0015.74,0008.07,0007.07
2022-11-12 08:56:00,,0827.2,4.99,0.00,22.3,21.0,00.0,31.2,24.1,09.6,-001.6,0015.98,0008.04,0007.09
2022-11-12 08:57:00,,0827.2,5.00,0.00,22.3,20.9,00.0,31.2,24.1,09.6,-001.4,0016.11,0008.01,0007.08
2022-11-12 08:58:00,,0827.2,5.00,0.00,22.3,20.8,00.0,31.1,24.1,09.5,-000.8,0016.36,0008.06,0007.08
2022-11-12 08:59:00,,0827.2,5.01,0.00,22.2,20.7,00.0,31.1,24.0,09.5,-001.3,0016.41,0008.08,0007.08
